Simultaneous Nadir Overpasses (SNOs) Predictions

Prediction of SNOs between GOES-14 and AQUA Satellite Orbit:

Table of predicted SNOs for the next 14.0 days since TLE Epoch: 11/4/2022
Index Date Time (GOES-14) GOES-14 Lat,Lon AQUA Lat,Lon Distance(km) Time Diff (sec)
1 11/06/2022 08:41:54 0.06,-104.36 0.12,-104.68 37.04 80
2 11/08/2022 08:26:20 0.08,-104.35 -0.55,-101.54 320.15 80
3 11/08/2022 20:47:31 -0.05,-104.12 -0.60,-106.67 290.44 80
4 11/10/2022 20:37:15 -0.05,-104.12 0.06,-103.52 67.66 80
5 11/11/2022 08:58:20 0.03,-104.38 0.96,-108.64 485.04 80
6 11/12/2022 20:24:19 -0.06,-104.12 0.75,-100.37 426.10 80
7 11/13/2022 08:45:24 0.03,-104.37 0.26,-105.49 127.38 80
8 11/15/2022 08:29:46 0.04,-104.36 -0.37,-102.33 230.53 80
9 11/15/2022 20:50:58 -0.01,-104.08 -0.75,-107.46 384.58 80
10 11/17/2022 20:38:00 -0.02,-104.09 -0.08,-104.31 25.20 80
